Year,Month,Day,Hour,Minute,Value (Times are PST for windgust in km/hr)
2021,01,13,00,00,38.60
2021,01,13,00,01,40.20
2021,01,13,00,02,40.20
2021,01,13,00,03,41.80
2021,01,13,00,04,19.30
2021,01,13,00,05,20.90
2021,01,13,00,06,24.20
2021,01,13,00,07,25.70
2021,01,13,00,08,43.50
2021,01,13,00,09,37.00
2021,01,13,00,10,46.70
2021,01,13,00,11,57.90
2021,01,13,00,12,57.90
2021,01,13,00,13,46.70
2021,01,13,00,14,43.50
2021,01,13,00,15,33.80
2021,01,13,00,16,35.40
2021,01,13,00,17,32.20
2021,01,13,00,18,29.00
2021,01,13,00,19,20.90
2021,01,13,00,20,29.00
2021,01,13,00,21,32.20
2021,01,13,00,22,22.50
2021,01,13,00,23,40.20
2021,01,13,00,24,27.40
2021,01,13,00,25,54.70
2021,01,13,00,26,41.80
2021,01,13,00,27,67.60
2021,01,13,00,28,40.20
2021,01,13,00,29,59.50
2021,01,13,00,30,72.40
2021,01,13,00,31,46.70
2021,01,13,00,32,83.70
2021,01,13,00,33,59.50
2021,01,13,00,34,41.80
2021,01,13,00,35,53.10
2021,01,13,00,36,72.40
2021,01,13,00,37,41.80
2021,01,13,00,38,51.50
2021,01,13,00,39,40.20
2021,01,13,00,40,49.90
2021,01,13,00,41,48.30
2021,01,13,00,42,37.00
2021,01,13,00,43,25.70
2021,01,13,00,44,40.20
2021,01,13,00,45,41.80
2021,01,13,00,46,35.40
2021,01,13,00,47,32.20
2021,01,13,00,48,46.70
2021,01,13,00,49,40.20
2021,01,13,00,50,45.10
2021,01,13,00,51,46.70
2021,01,13,00,52,41.80
2021,01,13,00,53,41.80
2021,01,13,00,54,38.60
2021,01,13,00,55,43.50
2021,01,13,00,56,51.50
2021,01,13,00,57,43.50
2021,01,13,00,58,41.80
2021,01,13,00,59,25.70
2021,01,13,01,00,32.20
2021,01,13,01,01,46.70
2021,01,13,01,02,46.70
2021,01,13,01,03,45.10
2021,01,13,01,04,51.50
2021,01,13,01,05,51.50
2021,01,13,01,06,38.60
2021,01,13,01,07,49.90
2021,01,13,01,08,45.10
2021,01,13,01,09,53.10
2021,01,13,01,10,45.10
2021,01,13,01,11,51.50
2021,01,13,01,12,54.70
2021,01,13,01,13,45.10
2021,01,13,01,14,45.10
2021,01,13,01,15,33.80
2021,01,13,01,16,41.80
2021,01,13,01,17,43.50
2021,01,13,01,18,48.30
2021,01,13,01,19,38.60
2021,01,13,01,20,37.00
2021,01,13,01,21,46.70
2021,01,13,01,22,45.10
2021,01,13,01,23,20.90
2021,01,13,01,24,48.30
2021,01,13,01,25,48.30
2021,01,13,01,26,27.40
2021,01,13,01,27,45.10
2021,01,13,01,28,35.40
2021,01,13,01,29,27.40
2021,01,13,01,30,27.40
2021,01,13,01,31,46.70
2021,01,13,01,32,43.50
2021,01,13,01,33,48.30
2021,01,13,01,34,41.80
2021,01,13,01,35,41.80
2021,01,13,01,36,54.70
2021,01,13,01,37,35.40
2021,01,13,01,38,33.80
2021,01,13,01,39,38.60
2021,01,13,01,40,35.40
2021,01,13,01,41,40.20
2021,01,13,01,42,30.60
2021,01,13,01,43,35.40
2021,01,13,01,44,35.40
2021,01,13,01,45,24.20
2021,01,13,01,46,41.80
2021,01,13,01,47,25.70
2021,01,13,01,48,25.70
2021,01,13,01,49,27.40
2021,01,13,01,50,27.40
2021,01,13,01,51,40.20
2021,01,13,01,52,27.40
2021,01,13,01,53,30.60
2021,01,13,01,54,24.20
2021,01,13,01,55,38.60
2021,01,13,01,56,27.40
2021,01,13,01,57,49.90
2021,01,13,01,58,33.80
2021,01,13,01,59,40.20
2021,01,13,02,00,35.40
2021,01,13,02,01,33.80
2021,01,13,02,02,30.60
2021,01,13,02,03,32.20
2021,01,13,02,04,33.80
2021,01,13,02,05,29.00
2021,01,13,02,06,30.60
2021,01,13,02,07,25.70
2021,01,13,02,08,20.90
2021,01,13,02,09,22.50
2021,01,13,02,10,27.40
2021,01,13,02,11,22.50
2021,01,13,02,12,29.00
2021,01,13,02,13,33.80
2021,01,13,02,14,38.60
2021,01,13,02,15,27.40
2021,01,13,02,16,35.40
2021,01,13,02,17,33.80
2021,01,13,02,18,41.80
2021,01,13,02,19,38.60
2021,01,13,02,20,48.30
2021,01,13,02,21,35.40
2021,01,13,02,22,45.10
2021,01,13,02,23,32.20
2021,01,13,02,24,46.70
2021,01,13,02,25,35.40
2021,01,13,02,26,37.00
2021,01,13,02,27,30.60
2021,01,13,02,28,38.60
2021,01,13,02,29,35.40
2021,01,13,02,30,41.80
2021,01,13,02,31,38.60
2021,01,13,02,32,35.40
2021,01,13,02,33,27.40
2021,01,13,02,34,40.20
2021,01,13,02,35,45.10
2021,01,13,02,36,27.40
2021,01,13,02,37,27.40
2021,01,13,02,38,37.00
2021,01,13,02,39,51.50
2021,01,13,02,40,35.40
2021,01,13,02,41,35.40
2021,01,13,02,42,24.20
2021,01,13,02,43,30.60
2021,01,13,02,44,33.80
2021,01,13,02,45,35.40
2021,01,13,02,46,29.00
2021,01,13,02,47,38.60
2021,01,13,02,48,38.60
2021,01,13,02,49,30.60
2021,01,13,02,50,33.80
2021,01,13,02,51,32.20
2021,01,13,02,52,35.40
2021,01,13,02,53,41.80
2021,01,13,02,54,41.80
2021,01,13,02,55,43.50
2021,01,13,02,56,29.00
2021,01,13,02,57,32.20
2021,01,13,02,58,27.40
2021,01,13,02,59,37.00
2021,01,13,03,00,29.00
2021,01,13,03,01,43.50
2021,01,13,03,02,46.70
2021,01,13,03,03,33.80
2021,01,13,03,04,25.70
2021,01,13,03,05,33.80
2021,01,13,03,06,38.60
2021,01,13,03,07,29.00
2021,01,13,03,08,29.00
2021,01,13,03,09,38.60
2021,01,13,03,10,29.00
2021,01,13,03,11,32.20
2021,01,13,03,12,29.00
2021,01,13,03,13,45.10
2021,01,13,03,14,35.40
2021,01,13,03,15,29.00
2021,01,13,03,16,35.40
2021,01,13,03,17,33.80
2021,01,13,03,18,38.60
2021,01,13,03,19,32.20
2021,01,13,03,20,38.60
2021,01,13,03,21,24.20
2021,01,13,03,22,32.20
2021,01,13,03,23,29.00
2021,01,13,03,24,30.60
2021,01,13,03,25,27.40
2021,01,13,03,26,19.30
2021,01,13,03,27,30.60
2021,01,13,03,28,20.90
2021,01,13,03,29,19.30
2021,01,13,03,30,37.00
2021,01,13,03,31,29.00
2021,01,13,03,32,41.80
2021,01,13,03,33,20.90
2021,01,13,03,34,16.10
2021,01,13,03,35,24.20
2021,01,13,03,36,22.50
2021,01,13,03,37,33.80
2021,01,13,03,38,37.00
2021,01,13,03,39,25.70
2021,01,13,03,40,22.50
2021,01,13,03,41,35.40
2021,01,13,03,42,22.50
2021,01,13,03,43,17.70
2021,01,13,03,44,30.60
2021,01,13,03,45,29.00
2021,01,13,03,46,25.70
2021,01,13,03,47,24.20
2021,01,13,03,48,22.50
2021,01,13,03,49,27.40
2021,01,13,03,50,20.90
2021,01,13,03,51,30.60
2021,01,13,03,52,25.70
2021,01,13,03,53,37.00
2021,01,13,03,54,19.30
2021,01,13,03,55,30.60
2021,01,13,03,56,30.60
2021,01,13,03,57,29.00
2021,01,13,03,58,24.20
2021,01,13,03,59,27.40
2021,01,13,04,00,22.50
2021,01,13,04,01,38.60
2021,01,13,04,02,33.80
2021,01,13,04,03,30.60
2021,01,13,04,04,27.40
2021,01,13,04,05,24.20
2021,01,13,04,06,29.00
2021,01,13,04,07,25.70
2021,01,13,04,08,17.70
2021,01,13,04,09,8.10
2021,01,13,04,10,17.70
2021,01,13,04,11,16.10
2021,01,13,04,12,22.50
2021,01,13,04,13,22.50
2021,01,13,04,14,22.50
2021,01,13,04,15,20.90
2021,01,13,04,16,32.20
2021,01,13,04,17,20.90
2021,01,13,04,18,16.10
2021,01,13,04,19,37.00
2021,01,13,04,20,32.20
2021,01,13,04,21,25.70
2021,01,13,04,22,29.00
2021,01,13,04,23,37.00
2021,01,13,04,24,29.00
2021,01,13,04,25,30.60
2021,01,13,04,26,37.00
2021,01,13,04,27,35.40
2021,01,13,04,28,27.40
2021,01,13,04,29,25.70
2021,01,13,04,30,24.20
2021,01,13,04,31,22.50
2021,01,13,04,32,20.90
2021,01,13,04,33,30.60
2021,01,13,04,34,32.20
2021,01,13,04,35,19.30
2021,01,13,04,36,16.10
2021,01,13,04,37,20.90
2021,01,13,04,38,14.50
2021,01,13,04,39,16.10
2021,01,13,04,40,16.10
2021,01,13,04,41,17.70
2021,01,13,04,42,9.60
2021,01,13,04,43,20.90
2021,01,13,04,44,11.30
2021,01,13,04,45,11.30
2021,01,13,04,46,9.60
2021,01,13,04,47,12.90
2021,01,13,04,48,14.50
2021,01,13,04,49,11.30
2021,01,13,04,50,11.30
2021,01,13,04,51,8.10
2021,01,13,04,52,6.40
2021,01,13,04,53,8.10
2021,01,13,04,54,11.30
2021,01,13,04,55,22.50
2021,01,13,04,56,19.30
2021,01,13,04,57,14.50
2021,01,13,04,58,11.30
2021,01,13,04,59,6.40
2021,01,13,05,00,4.80
2021,01,13,05,01,9.60
2021,01,13,05,02,14.50
2021,01,13,05,03,6.40
2021,01,13,05,04,6.40
2021,01,13,05,05,11.30
2021,01,13,05,06,25.70
2021,01,13,05,07,16.10
2021,01,13,05,08,17.70
2021,01,13,05,09,27.40
2021,01,13,05,10,17.70
2021,01,13,05,11,14.50
2021,01,13,05,12,12.90
2021,01,13,05,13,19.30
2021,01,13,05,14,16.10
2021,01,13,05,15,14.50
2021,01,13,05,16,27.40
2021,01,13,05,17,27.40
2021,01,13,05,18,19.30
2021,01,13,05,19,22.50
2021,01,13,05,20,20.90
2021,01,13,05,21,11.30
2021,01,13,05,22,20.90
2021,01,13,05,23,16.10
2021,01,13,05,24,22.50
2021,01,13,05,25,27.40
2021,01,13,05,26,19.30
2021,01,13,05,27,24.20
2021,01,13,05,28,22.50
2021,01,13,05,29,20.90
2021,01,13,05,30,24.20
2021,01,13,05,31,22.50
2021,01,13,05,32,12.90
2021,01,13,05,33,17.70
2021,01,13,05,34,22.50
2021,01,13,05,35,14.50
2021,01,13,05,36,11.30
2021,01,13,05,37,20.90
2021,01,13,05,38,19.30
2021,01,13,05,39,19.30
2021,01,13,05,40,17.70
2021,01,13,05,41,17.70
2021,01,13,05,42,14.50
2021,01,13,05,43,24.20
2021,01,13,05,44,25.70
2021,01,13,05,45,17.70
2021,01,13,05,46,14.50
2021,01,13,05,47,16.10
2021,01,13,05,48,12.90
2021,01,13,05,49,11.30
2021,01,13,05,50,12.90
2021,01,13,05,51,16.10
2021,01,13,05,52,19.30
2021,01,13,05,53,17.70
2021,01,13,05,54,17.70
2021,01,13,05,55,11.30
2021,01,13,05,56,14.50
2021,01,13,05,57,19.30
2021,01,13,05,58,19.30
2021,01,13,05,59,20.90
2021,01,13,06,00,14.50
2021,01,13,06,01,16.10
2021,01,13,06,02,19.30
2021,01,13,06,03,16.10
2021,01,13,06,04,16.10
2021,01,13,06,05,12.90
2021,01,13,06,06,20.90
2021,01,13,06,07,12.90
2021,01,13,06,08,24.20
2021,01,13,06,09,19.30
2021,01,13,06,10,24.20
2021,01,13,06,11,20.90
2021,01,13,06,12,12.90
2021,01,13,06,13,16.10
2021,01,13,06,14,19.30
2021,01,13,06,15,17.70
2021,01,13,06,16,19.30
2021,01,13,06,17,14.50
2021,01,13,06,18,19.30
2021,01,13,06,19,16.10
2021,01,13,06,20,20.90
2021,01,13,06,21,17.70
2021,01,13,06,22,14.50
2021,01,13,06,23,14.50
2021,01,13,06,24,12.90
2021,01,13,06,25,17.70
2021,01,13,06,26,11.30
2021,01,13,06,27,16.10
2021,01,13,06,28,19.30
2021,01,13,06,29,16.10
2021,01,13,06,30,25.70
2021,01,13,06,31,25.70
2021,01,13,06,32,25.70
2021,01,13,06,33,19.30
2021,01,13,06,34,25.70
2021,01,13,06,35,16.10
2021,01,13,06,36,22.50
2021,01,13,06,37,24.20
2021,01,13,06,38,19.30
2021,01,13,06,39,22.50
2021,01,13,06,40,24.20
2021,01,13,06,41,20.90
2021,01,13,06,42,20.90
2021,01,13,06,43,24.20
2021,01,13,06,44,24.20
2021,01,13,06,45,17.70
2021,01,13,06,46,22.50
2021,01,13,06,47,25.70
2021,01,13,06,48,19.30
2021,01,13,06,49,17.70
2021,01,13,06,50,27.40
2021,01,13,06,51,27.40
2021,01,13,06,52,29.00
2021,01,13,06,53,25.70
2021,01,13,06,54,20.90
2021,01,13,06,55,32.20
2021,01,13,06,56,19.30
2021,01,13,06,57,24.20
2021,01,13,06,58,24.20
2021,01,13,06,59,24.20
2021,01,13,07,00,25.70
2021,01,13,07,01,27.40
2021,01,13,07,02,27.40
2021,01,13,07,03,25.70
2021,01,13,07,04,25.70
2021,01,13,07,05,25.70
2021,01,13,07,06,19.30
2021,01,13,07,07,17.70
2021,01,13,07,08,17.70
2021,01,13,07,09,17.70
2021,01,13,07,10,27.40
2021,01,13,07,11,22.50
2021,01,13,07,12,22.50
2021,01,13,07,13,27.40
2021,01,13,07,14,30.60
2021,01,13,07,15,19.30
2021,01,13,07,16,17.70
2021,01,13,07,17,19.30
2021,01,13,07,18,24.20
2021,01,13,07,19,25.70
2021,01,13,07,20,29.00
2021,01,13,07,21,22.50
2021,01,13,07,22,19.30
2021,01,13,07,23,22.50
2021,01,13,07,24,22.50
2021,01,13,07,25,22.50
2021,01,13,07,26,17.70
2021,01,13,07,27,24.20
2021,01,13,07,28,27.40
2021,01,13,07,29,25.70
2021,01,13,07,30,19.30
2021,01,13,07,31,17.70
2021,01,13,07,32,20.90
2021,01,13,07,33,22.50
2021,01,13,07,34,20.90
2021,01,13,07,35,24.20
2021,01,13,07,36,22.50
2021,01,13,07,37,20.90
2021,01,13,07,38,27.40
2021,01,13,07,39,30.60
2021,01,13,07,40,16.10
2021,01,13,07,41,20.90
2021,01,13,07,42,20.90
2021,01,13,07,43,16.10
2021,01,13,07,44,20.90
2021,01,13,07,45,22.50
2021,01,13,07,46,17.70
2021,01,13,07,47,19.30
2021,01,13,07,48,20.90
2021,01,13,07,49,27.40
2021,01,13,07,50,24.20
2021,01,13,07,51,24.20
2021,01,13,07,52,22.50
2021,01,13,07,53,16.10
2021,01,13,07,54,27.40
2021,01,13,07,55,25.70
2021,01,13,07,56,29.00
2021,01,13,07,57,22.50
2021,01,13,07,58,20.90
2021,01,13,07,59,22.50
2021,01,13,08,00,29.00
2021,01,13,08,01,20.90
2021,01,13,08,02,32.20
2021,01,13,08,03,24.20
2021,01,13,08,04,27.40
2021,01,13,08,05,25.70
2021,01,13,08,06,16.10
2021,01,13,08,07,20.90
2021,01,13,08,08,20.90
2021,01,13,08,09,27.40
2021,01,13,08,10,25.70
2021,01,13,08,11,24.20
2021,01,13,08,12,16.10
2021,01,13,08,13,12.90
2021,01,13,08,14,12.90
2021,01,13,08,15,19.30
2021,01,13,08,16,22.50
2021,01,13,08,17,20.90
2021,01,13,08,18,20.90
2021,01,13,08,19,16.10
2021,01,13,08,20,14.50
2021,01,13,08,21,14.50
2021,01,13,08,22,12.90
2021,01,13,08,23,16.10
2021,01,13,08,24,14.50
2021,01,13,08,25,14.50
2021,01,13,08,26,16.10
2021,01,13,08,27,14.50
2021,01,13,08,28,11.30
2021,01,13,08,29,16.10
2021,01,13,08,30,17.70
2021,01,13,08,31,16.10
2021,01,13,08,32,11.30
2021,01,13,08,33,14.50
2021,01,13,08,34,16.10
2021,01,13,08,35,11.30
2021,01,13,08,36,11.30
2021,01,13,08,37,14.50
2021,01,13,08,38,12.90
2021,01,13,08,39,11.30
2021,01,13,08,40,11.30
2021,01,13,08,41,17.70
2021,01,13,08,42,9.60
2021,01,13,08,43,11.30
2021,01,13,08,44,12.90
2021,01,13,08,45,14.50
2021,01,13,08,46,14.50
2021,01,13,08,47,20.90
2021,01,13,08,48,17.70
2021,01,13,08,49,22.50
2021,01,13,08,50,25.70
2021,01,13,08,51,24.20
2021,01,13,08,52,14.50
2021,01,13,08,53,14.50
2021,01,13,08,54,11.30
2021,01,13,08,55,11.30
2021,01,13,08,56,12.90
2021,01,13,08,57,9.60
2021,01,13,08,58,9.60
2021,01,13,08,59,8.10
2021,01,13,09,00,11.30
2021,01,13,09,01,12.90
2021,01,13,09,02,16.10
2021,01,13,09,03,12.90
2021,01,13,09,04,8.10
2021,01,13,09,05,4.80
2021,01,13,09,06,14.50
2021,01,13,09,07,9.60
2021,01,13,09,08,8.10
2021,01,13,09,09,6.40
2021,01,13,09,10,4.80
2021,01,13,09,11,4.80
2021,01,13,09,12,9.60
2021,01,13,09,13,11.30
2021,01,13,09,14,14.50
2021,01,13,09,15,9.60
2021,01,13,09,16,6.40
2021,01,13,09,17,6.40
2021,01,13,09,18,8.10
2021,01,13,09,19,8.10
2021,01,13,09,20,9.60
2021,01,13,09,21,12.90
2021,01,13,09,22,8.10
2021,01,13,09,23,8.10
2021,01,13,09,24,16.10
2021,01,13,09,25,16.10
2021,01,13,09,26,16.10
2021,01,13,09,27,9.60
2021,01,13,09,28,14.50
2021,01,13,09,29,16.10
2021,01,13,09,30,9.60
2021,01,13,09,31,16.10
2021,01,13,09,32,14.50
2021,01,13,09,33,11.30
2021,01,13,09,34,11.30
2021,01,13,09,35,20.90
2021,01,13,09,36,19.30
2021,01,13,09,37,16.10
2021,01,13,09,38,16.10
2021,01,13,09,39,17.70
2021,01,13,09,40,16.10
2021,01,13,09,41,16.10
2021,01,13,09,42,16.10
2021,01,13,09,43,8.10
2021,01,13,09,44,9.60
2021,01,13,09,45,11.30
2021,01,13,09,46,14.50
2021,01,13,09,47,12.90
2021,01,13,09,48,14.50
2021,01,13,09,49,4.80
2021,01,13,09,50,8.10
2021,01,13,09,51,8.10
2021,01,13,09,52,8.10
2021,01,13,09,53,8.10
2021,01,13,09,54,8.10
2021,01,13,09,55,9.60
2021,01,13,09,56,9.60
2021,01,13,09,57,12.90
2021,01,13,09,58,9.60
2021,01,13,09,59,8.10
2021,01,13,10,00,14.50
2021,01,13,10,01,4.80
2021,01,13,10,02,6.40
2021,01,13,10,03,8.10
2021,01,13,10,04,8.10
2021,01,13,10,05,8.10
2021,01,13,10,06,6.40
2021,01,13,10,07,8.10
2021,01,13,10,08,8.10
2021,01,13,10,09,8.10
2021,01,13,10,10,6.40
2021,01,13,10,11,8.10
2021,01,13,10,12,12.90
2021,01,13,10,13,11.30
2021,01,13,10,14,8.10
2021,01,13,10,15,9.60
2021,01,13,10,16,6.40
2021,01,13,10,17,4.80
2021,01,13,10,18,8.10
2021,01,13,10,19,9.60
2021,01,13,10,20,6.40
2021,01,13,10,21,6.40
2021,01,13,10,22,8.10
2021,01,13,10,23,12.90
2021,01,13,10,24,11.30
2021,01,13,10,25,9.60
2021,01,13,10,26,9.60
2021,01,13,10,27,4.80
2021,01,13,10,28,6.40
2021,01,13,10,29,9.60
2021,01,13,10,30,9.60
2021,01,13,10,31,11.30
2021,01,13,10,32,11.30
2021,01,13,10,33,9.60
2021,01,13,10,34,11.30
2021,01,13,10,35,12.90
2021,01,13,10,36,9.60
2021,01,13,10,37,12.90
2021,01,13,10,38,8.10
2021,01,13,10,39,12.90
2021,01,13,10,40,9.60
2021,01,13,10,41,12.90
2021,01,13,10,42,8.10
2021,01,13,10,43,8.10
2021,01,13,10,44,16.10
2021,01,13,10,45,16.10
2021,01,13,10,46,11.30
2021,01,13,10,47,11.30
2021,01,13,10,48,14.50
2021,01,13,10,49,16.10
2021,01,13,10,50,8.10
2021,01,13,10,51,4.80
2021,01,13,10,52,8.10
2021,01,13,10,53,8.10
2021,01,13,10,54,6.40
2021,01,13,10,55,8.10
2021,01,13,10,56,14.50
2021,01,13,10,57,11.30
2021,01,13,10,58,12.90
2021,01,13,10,59,14.50
2021,01,13,11,00,12.90
2021,01,13,11,01,14.50
2021,01,13,11,02,12.90
2021,01,13,11,03,14.50
2021,01,13,11,04,9.60
2021,01,13,11,05,11.30
2021,01,13,11,06,12.90
2021,01,13,11,07,12.90
2021,01,13,11,08,16.10
2021,01,13,11,09,12.90
2021,01,13,11,10,12.90
2021,01,13,11,11,6.40
2021,01,13,11,12,19.30
2021,01,13,11,13,12.90
2021,01,13,11,14,11.30
2021,01,13,11,15,19.30
2021,01,13,11,16,22.50
2021,01,13,11,17,24.20
2021,01,13,11,18,20.90
2021,01,13,11,19,11.30
2021,01,13,11,20,16.10
2021,01,13,11,21,12.90
2021,01,13,11,22,16.10
2021,01,13,11,23,16.10
2021,01,13,11,24,14.50
2021,01,13,11,25,12.90
2021,01,13,11,26,16.10
2021,01,13,11,27,19.30
2021,01,13,11,28,11.30
2021,01,13,11,29,14.50
2021,01,13,11,30,20.90
2021,01,13,11,31,12.90
2021,01,13,11,32,17.70
2021,01,13,11,33,17.70
2021,01,13,11,34,17.70
2021,01,13,11,35,19.30
2021,01,13,11,36,17.70
2021,01,13,11,37,11.30
2021,01,13,11,38,19.30
2021,01,13,11,39,14.50
2021,01,13,11,40,16.10
2021,01,13,11,41,17.70
2021,01,13,11,42,16.10
2021,01,13,11,43,16.10
2021,01,13,11,44,14.50
2021,01,13,11,45,14.50
2021,01,13,11,46,22.50
2021,01,13,11,47,22.50
2021,01,13,11,48,12.90
2021,01,13,11,49,19.30
2021,01,13,11,50,19.30
2021,01,13,11,51,19.30
2021,01,13,11,52,11.30
2021,01,13,11,53,19.30
2021,01,13,11,54,14.50
2021,01,13,11,55,20.90
2021,01,13,11,56,14.50
2021,01,13,11,57,16.10
2021,01,13,11,58,14.50
2021,01,13,11,59,14.50
2021,01,13,12,00,8.10
2021,01,13,12,01,8.10
2021,01,13,12,02,19.30
2021,01,13,12,03,14.50
2021,01,13,12,04,11.30
2021,01,13,12,05,16.10
2021,01,13,12,06,16.10
2021,01,13,12,07,14.50
2021,01,13,12,08,14.50
2021,01,13,12,09,16.10
2021,01,13,12,10,11.30
2021,01,13,12,11,14.50
2021,01,13,12,12,17.70
2021,01,13,12,13,16.10
2021,01,13,12,14,20.90
2021,01,13,12,15,19.30
2021,01,13,12,16,17.70
2021,01,13,12,17,19.30
2021,01,13,12,18,20.90
2021,01,13,12,19,19.30
2021,01,13,12,20,19.30
2021,01,13,12,21,16.10
2021,01,13,12,22,16.10
2021,01,13,12,23,17.70
2021,01,13,12,24,14.50
2021,01,13,12,25,12.90
2021,01,13,12,26,20.90
2021,01,13,12,27,19.30
2021,01,13,12,28,11.30
2021,01,13,12,29,20.90
2021,01,13,12,30,14.50
2021,01,13,12,31,14.50
2021,01,13,12,32,12.90
2021,01,13,12,33,14.50
2021,01,13,12,34,14.50
2021,01,13,12,35,16.10
2021,01,13,12,36,6.40
2021,01,13,12,37,12.90
2021,01,13,12,38,11.30
2021,01,13,12,39,11.30
2021,01,13,12,40,12.90
2021,01,13,12,41,9.60
2021,01,13,12,42,11.30
2021,01,13,12,43,14.50
2021,01,13,12,44,12.90
2021,01,13,12,45,11.30
2021,01,13,12,46,9.60
2021,01,13,12,47,14.50
2021,01,13,12,48,12.90
2021,01,13,12,49,11.30
2021,01,13,12,50,12.90
2021,01,13,12,51,11.30
2021,01,13,12,52,16.10
2021,01,13,12,53,12.90
2021,01,13,12,54,8.10
2021,01,13,12,55,11.30
2021,01,13,12,56,11.30
2021,01,13,12,57,9.60
2021,01,13,12,58,8.10
2021,01,13,12,59,6.40
2021,01,13,13,00,6.40
2021,01,13,13,01,8.10
2021,01,13,13,02,9.60
2021,01,13,13,03,8.10
2021,01,13,13,04,3.20
2021,01,13,13,05,3.20
2021,01,13,13,06,6.40
2021,01,13,13,07,4.80
2021,01,13,13,08,6.40
2021,01,13,13,09,8.10
2021,01,13,13,10,6.40
2021,01,13,13,11,3.20
2021,01,13,13,12,1.60
2021,01,13,13,18,9.60
2021,01,13,13,19,11.30
2021,01,13,13,20,9.60
2021,01,13,13,21,6.40
2021,01,13,13,22,3.20
2021,01,13,13,23,4.80
2021,01,13,13,24,4.80
2021,01,13,13,25,11.30
2021,01,13,13,26,8.10
2021,01,13,13,27,6.40
2021,01,13,13,28,4.80
2021,01,13,13,29,8.10
2021,01,13,13,30,4.80
2021,01,13,13,31,8.10
2021,01,13,13,32,6.40
2021,01,13,13,33,4.80
2021,01,13,13,34,8.10
2021,01,13,13,35,11.30
2021,01,13,13,36,8.10
2021,01,13,13,37,8.10
2021,01,13,13,38,8.10
2021,01,13,13,39,6.40
2021,01,13,13,40,9.60
2021,01,13,13,41,6.40
2021,01,13,13,42,4.80
2021,01,13,13,43,4.80
2021,01,13,13,44,4.80
2021,01,13,13,45,6.40
2021,01,13,13,46,4.80
2021,01,13,13,47,6.40
2021,01,13,13,48,8.10
2021,01,13,13,49,6.40
2021,01,13,13,50,6.40
2021,01,13,13,51,4.80
2021,01,13,13,52,8.10
2021,01,13,13,53,8.10
2021,01,13,13,54,8.10
2021,01,13,13,55,6.40
2021,01,13,13,56,8.10
2021,01,13,13,57,8.10
2021,01,13,13,58,6.40
2021,01,13,13,59,4.80
2021,01,13,14,00,8.10
2021,01,13,14,01,9.60
2021,01,13,14,02,9.60
2021,01,13,14,03,4.80
2021,01,13,14,04,8.10
2021,01,13,14,05,4.80
2021,01,13,14,06,8.10
2021,01,13,14,07,8.10
2021,01,13,14,08,4.80
2021,01,13,14,09,6.40
2021,01,13,14,10,4.80
2021,01,13,14,11,3.20
2021,01,13,14,12,3.20
2021,01,13,14,13,6.40
2021,01,13,14,14,8.10
2021,01,13,14,15,11.30
2021,01,13,14,16,9.60
2021,01,13,14,17,6.40
2021,01,13,14,18,6.40
2021,01,13,14,19,6.40
2021,01,13,14,20,4.80
2021,01,13,14,21,3.20
2021,01,13,14,22,4.80
2021,01,13,14,23,4.80
2021,01,13,14,24,6.40
2021,01,13,14,25,3.20
2021,01,13,14,26,1.60
2021,01,13,14,27,3.20
2021,01,13,14,28,4.80
2021,01,13,14,29,6.40
2021,01,13,14,30,4.80
2021,01,13,14,31,6.40
2021,01,13,14,32,6.40
2021,01,13,14,33,6.40
2021,01,13,14,34,4.80
2021,01,13,14,35,4.80
2021,01,13,14,36,4.80
2021,01,13,14,37,4.80
2021,01,13,14,38,4.80
2021,01,13,14,39,3.20
2021,01,13,14,40,6.40
2021,01,13,14,41,4.80
2021,01,13,14,42,1.60
2021,01,13,14,43,3.20
2021,01,13,14,44,3.20
2021,01,13,14,45,4.80
2021,01,13,14,46,1.60
2021,01,13,14,47,1.60
2021,01,13,14,48,3.20
2021,01,13,14,49,4.80
2021,01,13,14,50,3.20
2021,01,13,14,51,1.60
2021,01,13,14,52,3.20
2021,01,13,14,53,4.80
2021,01,13,14,54,4.80
2021,01,13,14,56,1.60
2021,01,13,14,58,1.60
2021,01,13,14,59,1.60
2021,01,13,15,17,1.60
2021,01,13,15,20,4.80
2021,01,13,15,21,6.40
2021,01,13,15,22,3.20
2021,01,13,15,23,3.20
2021,01,13,15,24,6.40
2021,01,13,15,25,3.20
2021,01,13,15,26,3.20
2021,01,13,15,27,4.80
2021,01,13,15,28,3.20
2021,01,13,15,29,1.60
2021,01,13,15,30,1.60
2021,01,13,15,31,3.20
2021,01,13,15,32,3.20
2021,01,13,15,33,4.80
2021,01,13,15,34,6.40
2021,01,13,15,35,4.80
2021,01,13,15,36,3.20
2021,01,13,15,37,6.40
2021,01,13,15,38,8.10
2021,01,13,15,39,8.10
2021,01,13,15,40,6.40
2021,01,13,15,41,8.10
2021,01,13,15,42,4.80
2021,01,13,15,43,8.10
2021,01,13,15,44,4.80
2021,01,13,15,45,6.40
2021,01,13,15,46,3.20
2021,01,13,15,47,6.40
2021,01,13,15,48,8.10
2021,01,13,15,49,17.70
2021,01,13,15,50,17.70
2021,01,13,15,51,11.30
2021,01,13,15,52,9.60
2021,01,13,15,53,12.90
2021,01,13,15,54,11.30
2021,01,13,15,55,11.30
2021,01,13,15,56,9.60
2021,01,13,15,57,11.30
2021,01,13,15,58,14.50
2021,01,13,15,59,14.50
2021,01,13,16,00,11.30
2021,01,13,16,01,12.90
2021,01,13,16,02,12.90
2021,01,13,16,03,16.10
2021,01,13,16,04,11.30
2021,01,13,16,05,12.90
2021,01,13,16,06,17.70
2021,01,13,16,07,9.60
2021,01,13,16,08,11.30
2021,01,13,16,09,12.90
2021,01,13,16,10,12.90
2021,01,13,16,11,12.90
2021,01,13,16,12,12.90
2021,01,13,16,13,14.50
2021,01,13,16,14,9.60
2021,01,13,16,15,8.10
2021,01,13,16,16,12.90
2021,01,13,16,17,14.50
2021,01,13,16,18,12.90
2021,01,13,16,19,14.50
2021,01,13,16,20,9.60
2021,01,13,16,21,11.30
2021,01,13,16,22,11.30
2021,01,13,16,23,9.60
2021,01,13,16,24,11.30
2021,01,13,16,25,11.30
2021,01,13,16,26,11.30
2021,01,13,16,27,11.30
2021,01,13,16,28,8.10
2021,01,13,16,29,12.90
2021,01,13,16,30,12.90
2021,01,13,16,31,16.10
2021,01,13,16,32,11.30
2021,01,13,16,33,11.30
2021,01,13,16,34,9.60
2021,01,13,16,35,9.60
2021,01,13,16,36,8.10
2021,01,13,16,37,14.50
2021,01,13,16,38,11.30
2021,01,13,16,39,9.60
2021,01,13,16,40,9.60
2021,01,13,16,41,14.50
2021,01,13,16,42,9.60
2021,01,13,16,43,9.60
2021,01,13,16,44,4.80
2021,01,13,16,45,12.90
2021,01,13,16,46,9.60
2021,01,13,16,47,11.30
2021,01,13,16,48,11.30
2021,01,13,16,49,9.60
2021,01,13,16,50,12.90
2021,01,13,16,51,12.90
2021,01,13,16,52,9.60
2021,01,13,16,53,11.30
2021,01,13,16,54,11.30
2021,01,13,16,55,11.30
2021,01,13,16,56,9.60
2021,01,13,16,57,8.10
2021,01,13,16,58,8.10
2021,01,13,16,59,6.40
2021,01,13,17,00,9.60
2021,01,13,17,01,9.60
2021,01,13,17,02,4.80
2021,01,13,17,03,8.10
2021,01,13,17,04,9.60
2021,01,13,17,05,4.80
2021,01,13,17,06,3.20
2021,01,13,17,07,4.80
2021,01,13,17,08,3.20
2021,01,13,17,09,4.80
2021,01,13,17,10,3.20
2021,01,13,17,11,4.80
2021,01,13,17,12,6.40
2021,01,13,17,13,6.40
2021,01,13,17,14,4.80
2021,01,13,17,15,6.40
2021,01,13,17,16,6.40
2021,01,13,17,17,6.40
2021,01,13,17,18,3.20
2021,01,13,17,19,6.40
2021,01,13,17,20,8.10
2021,01,13,17,21,8.10
2021,01,13,17,22,4.80
2021,01,13,17,23,8.10
2021,01,13,17,24,6.40
2021,01,13,17,25,4.80
2021,01,13,17,26,4.80
2021,01,13,17,27,6.40
2021,01,13,17,28,8.10
2021,01,13,17,29,6.40
2021,01,13,17,30,11.30
2021,01,13,17,31,11.30
2021,01,13,17,32,11.30
2021,01,13,17,33,11.30
2021,01,13,17,34,14.50
2021,01,13,17,35,11.30
2021,01,13,17,36,9.60
2021,01,13,17,37,9.60
2021,01,13,17,38,9.60
2021,01,13,17,39,9.60
2021,01,13,17,40,8.10
2021,01,13,17,41,8.10
2021,01,13,17,42,8.10
2021,01,13,17,43,9.60
2021,01,13,17,44,9.60
2021,01,13,17,45,8.10
2021,01,13,17,46,6.40
2021,01,13,17,47,11.30
2021,01,13,17,48,6.40
2021,01,13,17,49,6.40
2021,01,13,17,50,6.40
2021,01,13,17,51,8.10
2021,01,13,17,52,8.10
2021,01,13,17,53,3.20
2021,01,13,17,54,3.20
2021,01,13,17,55,4.80
2021,01,13,17,56,6.40
2021,01,13,17,57,1.60
2021,01,13,17,58,4.80